{"data":{"norad_id":67188,"intl_designator":"2025-303AB","name":"STARLINK-35675","alt_names":[],"object_type":"PAYLOAD","status":"ACTIVE","operator":null,"country":"US","launch_date":"2025-12-17","launch_site_code":"AFETR","launch_vehicle":null,"mission":null,"orbit_class":"UNKNOWN","rcs_meters":null,"size_class":null,"mass_kg":null,"dimensions":null,"purposes":["comms"],"wikipedia_slug":null,"has_3d_model":false,"image_url":null,"decayed_at":null,"tle_current":{"epoch":"2026-05-24T22:53:31.000128Z","epoch_age_seconds":75168,"freshness":"FRESH","line1":"1 67188U 25303AB  26144.95383102  .00012971  00000+0  47982-3 0  9993","line2":"2 67188  42.9992 240.4493 0001145 285.4793  74.5933 15.27595399 24396","mean_motion":15.27595399,"eccentricity":0.0001145,"inclination_deg":42.9992,"raan_deg":240.4493,"arg_perigee_deg":285.4793,"mean_anomaly_deg":74.5933,"bstar":0.00047982,"rev_number":2439,"period_min":94.265798453089,"perigee_km":482.21738575281,"apogee_km":483.78858680967,"semimajor_km":6861.1399862812,"source":"CELESTRAK","updated_at":"2026-05-25T13:38:21.485334Z"}}}